Hourly Weather Roundup
Issued by NWS Central Illinois

Home | Current Version | Previous Version | Text Only | Print | Product List | Glossary On
Versions: 1 2 3 4 5 6 7 8 9 10 11 12 13 14 15 16 17 18 19 20 21 22 23 24 25 26 27 28 29 30 31 32 33 34 35 36 37 38 39 40 41 42 43 44 45 46 47 48 49 50
000
NZUS43 KILX 240610
HWRILX

AREA WEATHER ROUNDUP
NATIONAL WEATHER SERVICE, LINCOLN IL
100 AM CDT WED AUG 24 2016


CITY           SKY/WX    TMP DP  RH WIND       PRES   REMARKS
BLOOMINGTON    PTCLDY    69  65  86 S12       30.10S
6HR MIN TEMP:  69; 6HR MAX TEMP:  74;

CHAMPAIGN      CLEAR     69  64  84 S10       30.12S
6HR MIN TEMP:  69; 6HR MAX TEMP:  74;

DANVILLE       PTCLDY    68  64  85 S6        30.11S
6HR MIN TEMP:  66; 6HR MAX TEMP:  73;

DECATUR        MOCLDY    71  65  81 S9        30.10F
6HR MIN TEMP:  71; 6HR MAX TEMP:  75;

EFFINGHAM      CLOUDY    72  69  91 SE6       30.14S
FLORA          PTCLDY    71  69  92 SE5       30.13F
6HR MIN TEMP:  71; 6HR MAX TEMP:  75;

GALESBURG      PTCLDY    69  67  94 SE6       30.02F
JACKSONVILLE   PTCLDY    71  69  92 SE8       30.06S
6HR MIN TEMP:  69; 6HR MAX TEMP:  74;

LACON          MOCLDY    70  65  84 S9        30.05F
6HR MIN TEMP:  70; 6HR MAX TEMP:  75;

LAWRENCEVILLE  CLOUDY    70  66  87 S5        30.15F
6HR MIN TEMP:  69; 6HR MAX TEMP:  76;

LITCHFIELD     MOCLDY    71  67  89 SE9       30.10S
$$


CITY           SKY/WX    TMP DP  RH WIND       PRES   REMARKS
LINCOLN        MOCLDY    69  68  95 S5        30.08S
6HR MIN TEMP:  69; 6HR MAX TEMP:  75;

MACOMB         CLOUDY    69  69  97 SE8       30.04F
MATTOON        CLOUDY    70  63  78 SE10      30.12S
6HR MIN TEMP:  70; 6HR MAX TEMP:  75;

MT CARMEL AP   PTCLDY    68  65  90 SE3       30.15S
6HR MIN TEMP:  68; 6HR MAX TEMP:  76;

OLNEY-NOBLE AP CLEAR     68  68 100 SE5       30.14F
PARIS          CLOUDY    67  65  93 S5        30.14F
6HR MIN TEMP:  65; 6HR MAX TEMP:  73;

PEORIA         PTCLDY    70  67  90 S13       30.06F
6HR MIN TEMP:  70; 6HR MAX TEMP:  75;

PONTIAC        PTCLDY    70  68  94 S7        30.10S
RANTOUL        PTCLDY    69  67  91 S5        30.12S
6HR MIN TEMP:  69; 6HR MAX TEMP:  76;

ROBINSON       CLOUDY    68  65  90 S5        30.15S
6HR MIN TEMP:  67; 6HR MAX TEMP:  74;

SPRINGFIELD    MOCLDY    74  69  85 S12       30.07F
6HR MIN TEMP:  72; 6HR MAX TEMP:  75;

TAYLORVILLE    MOCLDY    71  68  90 S12       30.10S
$$

...REGIONAL REPORTS...


CITY           SKY/WX    TMP DP  RH WIND       PRES   REMARKS
CHICAGO O`HARE CLOUDY    74  62  66 S15       30.08R
KANKAKEE       CLOUDY    70  64  82 SE6       30.12S
MOLINE         CLOUDY    72  67  84 S12       29.99F
MOUNT STERLING MOCLDY    71  69  94 S9G17     30.02F
MOUNT VERNON   PTCLDY    72  66  83 CALM      30.13F
PITTSFIELD     CLOUDY    73  71  95 SE6       30.05F
QUINCY         CLOUDY    74  73  97 S13       30.01F
ROCKFORD       CLOUDY    73  65  75 S16       30.05S
$$


CITY           SKY/WX    TMP DP  RH WIND       PRES   REMARKS
BURLINGTON     CLOUDY    72  71  97 S14G20    29.98F
CEDAR RAPIDS   CLOUDY    73  72  96 S13G21    29.93F
DES MOINES     CLOUDY    78  73  84 S16G22    29.85R HX  81
KIRKSVILLE     CLOUDY    75  72  90 S12       29.96F
OTTUMWA        CLOUDY    74  70  87 S16G23    29.92F
ST LOUIS       PTCLDY    75  71  87 SE9       30.08S
$$


CITY           SKY/WX    TMP DP  RH WIND       PRES   REMARKS
TERRE HAUTE    PTCLDY    71  64  78 S6        30.14F
EVANSVILLE     CLOUDY    74  66  76 SE5       30.16S
INDIANAPOLIS   CLOUDY    70  63  78 S8        30.15S
LAFAYETTE      CLEAR     68  64  87 S3        30.13R
MADISON        CLOUDY    72  66  81 S18G26    29.98F
MILWAUKEE      CLOUDY    75  62  64 S10       30.04S
$$






USA.gov is the U.S. government's official web portal to all federal, state and local government web resources and services.